Regional Weather Roundup
Issued by NWS

Home | Current Version | Previous Version | Graphics & Text | Print | Product List | Glossary On
Versions: 1 2 3 4 5 6 7 8 9 10 11 12 13 14 15 16 17 18 19 20 21 22 23 24 25 26 27 28 29 30 31 32 33 34 35 36 37 38 39 40 41 42 43 44 45 46 47 48 49 50
000
ASUS43 KBIS 111720
RWRND

NORTH DAKOTA REGIONAL WEATHER ROUNDUP
NATIONAL WEATHER SERVICE BISMARCK ND
1200 PM CDT FRI JUL 11 2014

NOTE: "FAIR" INDICATES FEW OR NO CLOUDS BELOW 12,000 FEET WITH NO
SIGNIFICANT WEATHER AND/OR OBSTRUCTIONS TO VISIBILITY.


NDZ001>003-009>011-017-111800-
NORTHWEST NORTH DAKOTA

CITY           SKY/WX    TMP DP  RH WIND       PRES   REMARKS
WILLISTON      PTSUNNY   73  51  46 N16       30.07S
MINOT          CLOUDY    70  54  56 NW15      30.01R
MINOT AFB      PTSUNNY   72  56  57 NW13      30.01R
$$

NDZ018>021-031>035-040>046-111800-
SOUTHWEST NORTH DAKOTA

CITY           SKY/WX    TMP DP  RH WIND       PRES   REMARKS
BISMARCK       MOSUNNY   79  59  50 N10       29.99S
DICKINSON      MOSUNNY   71  59  65 NE3       30.06R
GARRISON         N/A     74  63  68 N7        30.00S
HETTINGER ARPT SUNNY     79  59  50 N20G28    30.05R
$$

NDZ004>008-012>016-024-026-027-054-111800-
NORTHEAST NORTH DAKOTA

CITY           SKY/WX    TMP DP  RH WIND       PRES   REMARKS
GRAND FORKS    MOSUNNY   80  69  69 N10       29.88R
GRND FRKS AFB  MOSUNNY   80  71  71 N10       29.90R
DEVILS LAKE    MOSUNNY   79  52  38 N13       29.95R
$$

NDZ022-023-025-028>030-036>039-047>053-111800-
SOUTHEAST NORTH DAKOTA

CITY           SKY/WX    TMP DP  RH WIND       PRES   REMARKS
FARGO          SUNNY     83  71  67 NW7       29.87S
JAMESTOWN      MOSUNNY   80  65  59 N8        29.95R
$$



USA.gov is the U.S. government's official web portal to all federal, state and local government web resources and services.